Change the Weather History Date:

Saturday, February 8, 2014

  Actual Average (LIMK) Record (LIMK)
Temperature  
Mean Temperature 32 °F -  
Max Temperature 39 °F 44 °F 53 °F (2004)
Min Temperature 26 °F 34 °F 24 °F (2012)
Degree Days  
Heating Degree Days 32    
Moisture  
Dew Point 36 °F    
Average Humidity 98    
Maximum Humidity 100    
Minimum Humidity 93    
Precipitation  
Precipitation 0.00 in - - ()
Sea Level Pressure  
Sea Level Pressure 29.73 in    
Wind  
Wind Speed 3 mph ()    
Max Wind Speed 6 mph    
Max Gust Speed -    
Visibility 3.7 miles    
Events Rain    
Averages and records for this station are not official NWS values.
T = Trace of Precipitation, MM = Missing Value Source: Averaged Metar Reports

Daily Weather History Graph

Daily Weather History Graph

Search for Another Location

Airport or City:

Trip Planner

Search our weather history database for the weather conditions in past years. The results will help you decide how hot, cold, wet, or windy it might be!

Date:

Astronomy

Feb. 08, 2014 Rise Set
Actual Time 7:39 AM CET 5:48 PM CET
Civil Twilight 7:09 AM CET 6:18 PM CET
Nautical Twilight 6:34 AM CET 6:53 PM CET
Astronomical Twilight 6:01 AM CET 7:27 PM CET
Moon 12:26 PM CET (2/8) 2:40 AM CET (2/8)
Length of Visible Light 11h 09m
Length of Day
10h 08m
Waxing Gibbous, 66% of the Moon is Illuminated
Feb 8
Waxing Gibbous
Feb 15
Full
Feb 22
Last Quarter
Mar 1
New
Mar 8
First Quarter

Hourly Weather History & Observations

Time (CET) Temp. Windchill Dew Point Humidity Pressure Visibility Wind Dir Wind Speed Gust Speed Precip Events Conditions
6:00 AM 26.6 °F - 26.6 °F 100% 29.80 in - Variable 2.3 mph - N/A   Clear
6:50 AM 28.4 °F 24.6 °F 28.4 °F 100% 29.80 in - WSW 3.5 mph - N/A   Clear
7:50 AM 28.4 °F 23.3 °F 28.4 °F 100% 29.80 in 6.2 mi South 4.6 mph - N/A   Scattered Clouds
8:50 AM 30.2 °F 24.3 °F 30.2 °F 100% 29.80 in 6.2 mi SW 5.8 mph - N/A   Mostly Cloudy
9:50 AM 33.8 °F - 33.8 °F 100% 29.80 in 5.0 mi Variable 2.3 mph - N/A   Scattered Clouds
10:50 AM 37.4 °F - 37.4 °F 100% 29.80 in 5.0 mi Variable 2.3 mph - N/A   Scattered Clouds
11:50 AM 37.4 °F 33.8 °F 37.4 °F 100% 29.80 in 5.0 mi NE 4.6 mph - N/A   Mostly Cloudy
12:50 PM 39.2 °F 35.9 °F 37.4 °F 93% 29.77 in 5.0 mi ENE 4.6 mph - N/A   Mostly Cloudy
1:50 PM 39.2 °F 37.0 °F 37.4 °F 93% 29.74 in 3.7 mi ENE 3.5 mph - N/A   Mostly Cloudy
2:50 PM 39.2 °F - 37.4 °F 93% 29.71 in 3.1 mi Variable 2.3 mph - N/A   Mostly Cloudy
3:50 PM 39.2 °F - 37.4 °F 93% 29.71 in 3.1 mi Variable 2.3 mph - N/A   Mostly Cloudy
4:50 PM 39.2 °F - 39.2 °F 100% 29.71 in 2.5 mi Variable 2.3 mph - N/A   Drizzle
5:50 PM 39.2 °F - 39.2 °F 100% 29.68 in 2.5 mi Variable 2.3 mph - N/A   Drizzle
6:50 PM 39.2 °F 35.0 °F 37.4 °F 93% 29.68 in 3.1 mi SW 5.8 mph - N/A   Mostly Cloudy
7:50 PM 37.4 °F 34.9 °F 37.4 °F 100% 29.65 in 3.7 mi WSW 3.5 mph - N/A   Scattered Clouds
8:50 PM 37.4 °F - 37.4 °F 100% 29.65 in 2.5 mi Variable 2.3 mph - N/A   Scattered Clouds
9:50 PM 37.4 °F 34.9 °F 37.4 °F 100% 29.65 in 2.5 mi SSW 3.5 mph - N/A   Mostly Cloudy
10:50 PM 37.4 °F 34.9 °F 37.4 °F 100% 29.62 in 2.2 mi Variable 3.5 mph - N/A   Mostly Cloudy
11:50 PM 37.4 °F 33.8 °F 37.4 °F 100% 29.62 in 1.6 mi SW 4.6 mph - N/A Rain Light Rain